This is the latest recevied weather packets stored in our database for station/object MM1PTT-13. If no packets are shown the sender has not sent any weather packets the latest 10 day(s).
| Time | Temp. | Humidity | Pressure | Rain* | Wind** | Luminosity | Snow |
|---|---|---|---|---|---|---|---|
| 1777974642 | 11.67° C | 51% | 986.5 hPa | 0 mm | - | 358 W/m² | - |
| 1777974343 | 10.56° C | 53% | 986.5 hPa | 0 mm | - | 338 W/m² | - |
| 1777974044 | 11.11° C | 52% | 986.5 hPa | 0 mm | - | 383 W/m² | - |
| 1777973742 | 11.11° C | 55% | 986.5 hPa | 0 mm | - | 386 W/m² | - |
| 1777973445 | 11.11° C | 53% | 986.5 hPa | 0 mm | - | 365 W/m² | - |
| 1777973145 | 11.11° C | 54% | 986.5 hPa | 0 mm | - | 363 W/m² | - |
| 1777972843 | 10.56° C | 54% | 986.5 hPa | 0 mm | - | 336 W/m² | - |
| 1777972543 | 10.56° C | 59% | 986.5 hPa | 0 mm | - | 322 W/m² | - |
| 1777972242 | 10.56° C | 58% | 986.5 hPa | 0 mm | - | 315 W/m² | - |
| 1777971943 | 10.56° C | 57% | 986.5 hPa | 0 mm | - | 257 W/m² | - |
| 1777971642 | 10.56° C | 57% | 986.5 hPa | 0 mm | - | 217 W/m² | - |
| 1777971342 | 10.56° C | 56% | 986.5 hPa | 0 mm | - | 180 W/m² | - |
| 1777971042 | 10.56° C | 57% | 986.5 hPa | 0 mm | - | 193 W/m² | - |
| 1777970742 | 10.56° C | 59% | 986.1 hPa | 0 mm | - | 259 W/m² | - |
| 1777970445 | 10° C | 58% | 986.1 hPa | 0 mm | - | 247 W/m² | - |
| 1777970143 | 10° C | 59% | 986.1 hPa | 0 mm | - | 293 W/m² | - |
| 1777969843 | 10° C | 61% | 986.5 hPa | 0 mm | - | 276 W/m² | - |
| 1777969542 | 10° C | 61% | 986.1 hPa | 0 mm | - | 215 W/m² | - |
| 1777969242 | 10° C | 64% | 986.1 hPa | 0 mm | - | 165 W/m² | - |
| 1777968945 | 10° C | 64% | 986.1 hPa | 0 mm | - | 174 W/m² | - |
| 1777968644 | 10° C | 64% | 986.1 hPa | 0 mm | - | 136 W/m² | - |
| 1777968342 | 10° C | 63% | 986.1 hPa | 0 mm | - | 126 W/m² | - |
| 1777968042 | 10° C | 64% | 986.1 hPa | 0 mm | - | 118 W/m² | - |
| 1777967743 | 10° C | 63% | 986.1 hPa | 0 mm | - | 104 W/m² | - |
| 1777967446 | 11.11° C | 59% | 986.1 hPa | 0 mm | - | 158 W/m² | - |
* Rain latest hour (hover to see other rain measurements)
** Current wind speed in m/s (hover to see current wind gust speed)